SCP
0 0 0 0 0 0 0 0 0 0 0 0 0 0 0 0 0 0 0 0 0 0 0 0 0 0 0 0 0 0 0 0 0 0 0 0 0 0
0 0 0 0 0 0 0 0 0 0 0 0 0 0 0 0 0 0 0 0 0 0 0 0 0 0 0 0 0 0 0 0 0 0 0 0 0 0
0 0 0 0 0 0 0 0 0 0 0 0 0 0 0 0 0 0 0 0 0 0 0 0 0 0 0 0 0 0 0 0 0 0 0 0 0 0
0 0 0 0 0 0 0 0 0 0 0 0 0 0 0 0 0 0 0 0 0 0 0 0 0 0 0 0 0 0 0 0 0 0 0 0 0 0
0 0 0 0 0 0 0 0 0 0 0 0 0 0 0 0 0 0 0 0 0 0 0 0 0 0 0 0 0 0 0 0 0 0 0 0 0 0
0 0 0 0 0 0 0 0 0 0 0 0 0 0 0 0 0 0 0 0 0 0 0 0 0 0 0 0 0 0 0 0 0 0 0 0 0 0
0 0 0 0 0 0 0 0 0 0 0 0 0 0 0 0 0 0 0 0 0 0 0 0 0 0 0 0 0 0 0 0 0 0 0 0 0 0
0 0 0 0 0 0 0 0 0 0 0 0 0 0 0 0 0 0 0 0 0 0 0 0 0 0 0 0 0 0 0 0 0 0 0 0 0 0
0 0 0 0 0 0 0 0 0 0 0 0 0 0 0 0 0 0 0 0 0 0 0 0 0 0 0 0 0 0 0 0 0 0 0 0 0 0
0 0 0 0 0 0 0 0 0 0 0 0 0 0 0 0 0 0 0 0 0 0 0 0 0 0 0 0 0 0 0 0 0 0 0 0 0 0
0 0 0 0 0 0 0 0 0 0 0 0 0 0 0 0 0 0 0 0 0 0 0 0 0 0 0 0 0 0 0 0 0 0 0 0 0 0
0 0 0 0 0 0 0 0 0 0 0 0 0 0 0 0 0 0 0 0 0 0 0 0 0 0 0 0 0 0 0 0 0 0 0 0 0 0
0 0 0 0 0 0 0 0 0 0 0 0 0 0 0 0 0 0 0 0 0 0 0 0 0 0 0 0 0 0 0 0 0 0 0 0 0 0
0 0 0 0 0 0 0 0 0 0 0 0 0 0 0 0 0 0 0 0 0 0 0 0 0 0 0 0 0 0 0 0 0 0 0 0 0 0
0 0 0 0 0 0 0 0 0 0 0 0 0 0 0 0 0 0 0 0 0 0 0 0 0 0 0 0 0 0 0 0 0 0 0 0 0 0
0 0 0 0 0 0 0 0 0 0 0 0 0 0 0 0 0 0 0 0 0 0 0 0 0 0 0 0 0 0 0 0 0 0 0 0 0 0
0 0 0 0 0 0 0 0 0 0 0 0 0 0 0 0 0 0 0 0 0 0 0 0 0 0 0 0 0 0 0 0 0 0 0 0 0 0
0 0 0 0 0 0 0 0 0 0 0 0 0 0 0 0 0 0 0 0 0 0 0 0 0 0 0 0 0 0 0 0 0 0 0 0 0 0
0 0 0 0 0 0 0 0 0 0 0 0 0 0 0 0 0 0 0 0 0 0 0 0 0 0 0 0 0 0 0 0 0 0 0 0 0 0
0 0 0 0 0 0 0 0 0 0 0 0 0 0 0 0 0 0 0 0 0 0 0 0 0 0 0 0 0 0 0 0 0 0 0 0 0 0
0 0 0 0 0 0 0 0 0 0 0 0 0 0 0 0 0 0 0 0 0 0 0 0 0 0 0 0 0 0 0 0 0 0 0 0 0 0
0 0 0 0 0 0 0 0 0 0 0 0 0 0 0 0 0 0 0 0 0 0 0 0 0 0 0 0 0 0 0 0 0 0 0 0 0 0
0 0 0 0 0 0 0 0 0 0 0 0 0 0 0 0 0 0 0 0 0 0 0 0 0 0 0 0 0 0 0 0 0 0 0 0 0 0
Wind_Speed_500mb
56 54 53 53 50 46 43 38 36 28 32 28 21 14 15 15 16 15 16 20 21 27 31 35 40 42 43 43 38 43 45 49 51 55 59 63 66 70
55 55 56 54 51 48 43 38 33 30 25 27 24 18 14 14 14 14 15 16 22 23 27 32 36 40 43 45 47 49 46 47 53 56 59 62 68 69
57 56 57 56 53 48 41 36 32 30 27 27 23 16 14 14 14 15 16 17 20 20 24 30 34 37 40 44 47 47 48 52 54 56 59 62 67 69
60 60 60 59 55 47 39 34 32 29 25 23 18 11 14 13 14 14 16 17 17 19 21 26 31 35 39 42 46 47 49 54 60 61 58 59 65 68
60 66 63 61 55 46 42 37 33 31 24 19 13 12 15 14 14 14 16 17 19 18 19 25 28 33 37 40 44 47 51 53 61 62 65 66 65 64
63 68 64 58 51 46 41 39 36 31 23 19 12 17 19 17 16 15 15 18 20 20 19 24 29 31 35 39 43 47 50 52 60 63 65 66 67 65
66 70 63 54 48 43 40 40 36 30 24 21 19 21 24 23 21 20 20 19 20 19 17 21 25 29 33 34 38 46 47 53 56 61 62 62 63 63
69 70 62 56 50 47 44 42 36 29 26 21 25 26 28 25 26 25 25 26 21 24 26 21 27 28 33 35 39 43 42 51 55 58 59 58 59 58
66 63 61 57 52 50 50 45 37 30 21 26 33 32 33 28 26 27 28 29 29 27 35 29 27 26 31 37 41 37 44 48 52 55 56 56 55 54
65 62 58 55 56 56 54 48 41 31 23 30 37 40 36 34 29 30 29 29 32 29 31 34 32 29 30 36 34 31 42 44 52 54 52 52 51 50
63 62 58 58 56 58 55 46 40 31 28 34 43 48 43 35 33 33 27 32 35 32 30 33 31 43 40 30 23 38 41 40 48 50 48 50 49 47
69 68 66 61 59 58 55 49 42 31 35 35 49 51 45 37 36 37 33 35 34 36 21 29 37 37 27 22 32 41 44 41 47 47 41 46 46 46
71 74 67 64 61 60 58 50 39 34 43 37 55 54 50 43 43 42 39 37 36 39 38 35 42 41 39 42 42 41 38 45 46 43 40 42 43 44
70 69 63 60 61 62 57 49 40 42 42 47 63 59 51 48 45 45 42 36 33 35 36 41 46 40 43 51 50 41 39 42 44 39 45 40 38 37
68 66 58 58 60 62 58 53 48 49 46 66 68 62 50 48 49 47 41 42 41 39 35 39 42 41 40 46 51 44 46 41 37 46 42 39 38 37
72 63 61 63 69 67 62 56 55 54 61 69 67 61 51 57 53 46 44 43 46 45 39 35 36 38 38 38 43 45 38 42 40 44 43 36 36 34
69 74 75 77 80 74 67 63 66 64 68 70 69 64 59 59 58 51 49 45 48 45 42 38 37 35 37 39 44 39 40 38 36 41 41 41 32 34
77 82 86 86 85 78 72 73 76 69 70 72 71 67 64 63 61 55 53 50 48 45 43 38 36 38 40 40 41 38 36 37 35 35 44 44 34 31
87 90 92 91 92 83 81 80 72 65 66 73 69 69 67 66 64 60 55 51 50 46 42 39 40 40 42 46 39 36 39 34 33 40 43 42 40 31
87 94 95 92 90 86 87 77 76 73 71 78 73 71 70 70 67 64 59 53 50 48 45 42 41 39 42 42 41 35 34 38 42 38 38 41 42 37
84 93 94 92 92 95 90 81 83 84 82 81 74 73 74 73 71 66 61 55 52 50 47 44 41 40 42 42 42 36 32 38 41 37 38 40 41 39
84 89 95 94 95 101 101 91 86 90 87 83 78 80 79 76 74 69 63 60 55 48 43 42 45 42 41 41 38 38 38 39 38 35 38 38 38 33
83 90 95 94 98 104 113 93 92 95 84 79 79 79 79 78 75 70 64 58 54 51 48 47 45 43 42 42 39 37 41 39 39 38 34 34 36 40
Wind_Direction_500mb
258 258 250 246 240 233 234 235 231 226 229 243 242 249 277 302 308 326 340 354 357 5 6 6 4 1 359 357 359 358 357 357 356 354 353 352 351 349
254 252 244 241 233 231 234 234 230 229 217 231 237 246 264 283 295 316 332 344 355 359 1 3 2 360 358 354 352 352 353 354 352 351 350 352 352 349
254 248 241 235 231 231 230 227 222 219 219 227 233 246 269 284 302 314 323 335 344 346 352 357 356 356 352 351 350 349 348 347 349 348 348 351 351 348
249 242 234 230 228 229 227 223 217 215 221 228 233 254 273 281 299 303 308 321 331 333 345 348 350 350 347 349 347 345 343 343 346 346 348 349 349 349
255 241 231 229 228 228 224 216 213 212 219 231 248 275 273 278 290 300 305 310 317 327 331 337 345 343 343 344 343 342 340 341 344 345 344 347 349 350
247 233 229 229 231 228 221 215 210 210 215 227 254 272 271 275 286 298 299 302 301 319 318 333 339 337 339 341 339 338 337 342 342 344 344 347 349 349
232 228 227 227 228 227 223 216 211 212 217 231 260 263 269 277 287 290 300 299 302 304 316 323 328 334 329 335 336 335 337 341 343 344 344 347 349 349
233 226 225 225 226 224 219 216 216 216 233 242 253 258 262 271 280 289 300 305 308 314 317 326 326 328 326 333 337 335 337 341 343 344 345 347 349 351
230 229 230 229 227 224 219 217 216 231 238 262 263 260 259 263 272 281 290 299 308 312 314 323 322 330 331 331 331 335 339 341 343 344 345 347 349 351
230 230 231 232 230 225 219 217 223 229 240 267 271 262 261 261 268 274 281 292 299 302 303 310 321 328 328 324 324 333 339 341 345 343 343 345 348 351
231 231 233 233 229 225 219 218 228 235 253 284 272 264 265 263 265 270 279 286 297 303 306 304 314 321 324 325 318 332 333 339 345 342 340 343 346 350
228 230 230 231 229 224 220 225 228 244 263 272 267 265 266 263 266 272 275 284 289 294 300 297 307 318 322 316 320 322 327 334 340 339 338 341 343 346
234 234 233 232 229 225 223 229 233 247 272 267 266 264 264 267 269 270 271 273 277 279 287 294 298 307 305 302 313 315 317 328 333 336 337 340 343 345
238 241 239 237 232 227 229 231 236 260 266 276 264 264 263 265 268 268 271 271 272 279 285 289 290 297 297 300 306 308 310 317 326 332 335 338 340 341
241 241 241 238 232 228 233 231 244 257 283 280 265 265 264 267 269 270 272 275 280 281 279 281 286 288 286 291 298 305 310 315 319 326 329 332 336 337
241 240 238 234 230 233 233 237 249 264 281 273 265 264 261 263 266 266 267 271 275 279 283 280 278 280 287 290 290 297 303 304 313 317 323 328 329 333
244 239 236 233 230 233 235 243 252 262 269 261 259 260 260 260 263 265 265 266 269 277 281 281 278 280 284 284 284 292 296 293 300 308 313 320 325 324
249 246 243 239 235 238 240 250 255 261 265 258 260 259 258 259 262 262 262 263 267 272 275 274 271 273 277 278 283 291 285 290 293 297 310 311 319 318
250 249 247 244 239 240 250 253 263 270 259 261 261 261 259 258 257 258 259 261 265 270 271 265 262 267 271 277 286 285 289 291 286 299 302 302 308 313
251 250 249 247 242 247 250 260 269 261 254 262 259 260 259 257 255 255 256 258 262 265 264 261 261 262 266 273 275 283 287 285 286 293 294 294 300 304
254 253 253 253 248 254 255 268 270 281 255 262 259 261 259 256 255 256 256 256 257 258 259 259 264 260 263 266 270 285 279 279 284 288 291 294 299 300
256 256 258 260 255 258 259 267 270 276 252 261 258 258 259 256 254 254 253 253 255 257 257 251 254 258 261 265 275 280 281 278 279 281 284 289 292 286
268 264 263 263 262 262 267 268 278 276 257 259 261 261 259 255 254 253 250 250 250 248 248 248 249 250 254 259 266 271 273 276 279 279 278 280 278 280
Wind_Speed_850mb
56 54 53 53 50 46 43 38 36 28 32 28 21 14 15 15 16 15 16 20 21 27 31 35 40 42 43 43 38 43 45 49 51 55 59 63 66 70
55 55 56 54 51 48 43 38 33 30 25 27 24 18 14 14 14 14 15 16 22 23 27 32 36 40 43 45 47 49 46 47 53 56 59 62 68 69
57 56 57 56 53 48 41 36 32 30 27 27 23 16 14 14 14 15 16 17 20 20 24 30 34 37 40 44 47 47 48 52 54 56 59 62 67 69
60 60 60 59 55 47 39 34 32 29 25 23 18 11 14 13 14 14 16 17 17 19 21 26 31 35 39 42 46 47 49 54 60 61 58 59 65 68
60 66 63 61 55 46 42 37 33 31 24 19 13 12 15 14 14 14 16 17 19 18 19 25 28 33 37 40 44 47 51 53 61 62 65 66 65 64
63 68 64 58 51 46 41 39 36 31 23 19 12 17 19 17 16 15 15 18 20 20 19 24 29 31 35 39 43 47 50 52 60 63 65 66 67 65
66 70 63 54 48 43 40 40 36 30 24 21 19 21 24 23 21 20 20 19 20 19 17 21 25 29 33 34 38 46 47 53 56 61 62 62 63 63
69 70 62 56 50 47 44 42 36 29 26 21 25 26 28 25 26 25 25 26 21 24 26 21 27 28 33 35 39 43 42 51 55 58 59 58 59 58
66 63 61 57 52 50 50 45 37 30 21 26 33 32 33 28 26 27 28 29 29 27 35 29 27 26 31 37 41 37 44 48 52 55 56 56 55 54
65 62 58 55 56 56 54 48 41 31 23 30 37 40 36 34 29 30 29 29 32 29 31 34 32 29 30 36 34 31 42 44 52 54 52 52 51 50
63 62 58 58 56 58 55 46 40 31 28 34 43 48 43 35 33 33 27 32 35 32 30 33 31 43 40 30 23 38 41 40 48 50 48 50 49 47
69 68 66 61 59 58 55 49 42 31 35 35 49 51 45 37 36 37 33 35 34 36 21 29 37 37 27 22 32 41 44 41 47 47 41 46 46 46
71 74 67 64 61 60 58 50 39 34 43 37 55 54 50 43 43 42 39 37 36 39 38 35 42 41 39 42 42 41 38 45 46 43 40 42 43 44
70 69 63 60 61 62 57 49 40 42 42 47 63 59 51 48 45 45 42 36 33 35 36 41 46 40 43 51 50 41 39 42 44 39 45 40 38 37
68 66 58 58 60 62 58 53 48 49 46 66 68 62 50 48 49 47 41 42 41 39 35 39 42 41 40 46 51 44 46 41 37 46 42 39 38 37
72 63 61 63 69 67 62 56 55 54 61 69 67 61 51 57 53 46 44 43 46 45 39 35 36 38 38 38 43 45 38 42 40 44 43 36 36 34
69 74 75 77 80 74 67 63 66 64 68 70 69 64 59 59 58 51 49 45 48 45 42 38 37 35 37 39 44 39 40 38 36 41 41 41 32 34
77 82 86 86 85 78 72 73 76 69 70 72 71 67 64 63 61 55 53 50 48 45 43 38 36 38 40 40 41 38 36 37 35 35 44 44 34 31
87 90 92 91 92 83 81 80 72 65 66 73 69 69 67 66 64 60 55 51 50 46 42 39 40 40 42 46 39 36 39 34 33 40 43 42 40 31
87 94 95 92 90 86 87 77 76 73 71 78 73 71 70 70 67 64 59 53 50 48 45 42 41 39 42 42 41 35 34 38 42 38 38 41 42 37
84 93 94 92 92 95 90 81 83 84 82 81 74 73 74 73 71 66 61 55 52 50 47 44 41 40 42 42 42 36 32 38 41 37 38 40 41 39
84 89 95 94 95 101 101 91 86 90 87 83 78 80 79 76 74 69 63 60 55 48 43 42 45 42 41 41 38 38 38 39 38 35 38 38 38 33
83 90 95 94 98 104 113 93 92 95 84 79 79 79 79 78 75 70 64 58 54 51 48 47 45 43 42 42 39 37 41 39 39 38 34 34 36 40
Wind_Direction_850mb
258 258 250 246 240 233 234 235 231 226 229 243 242 249 277 302 308 326 340 354 357 5 6 6 4 1 359 357 359 358 357 357 356 354 353 352 351 349
254 252 244 241 233 231 234 234 230 229 217 231 237 246 264 283 295 316 332 344 355 359 1 3 2 360 358 354 352 352 353 354 352 351 350 352 352 349
254 248 241 235 231 231 230 227 222 219 219 227 233 246 269 284 302 314 323 335 344 346 352 357 356 356 352 351 350 349 348 347 349 348 348 351 351 348
249 242 234 230 228 229 227 223 217 215 221 228 233 254 273 281 299 303 308 321 331 333 345 348 350 350 347 349 347 345 343 343 346 346 348 349 349 349
255 241 231 229 228 228 224 216 213 212 219 231 248 275 273 278 290 300 305 310 317 327 331 337 345 343 343 344 343 342 340 341 344 345 344 347 349 350
247 233 229 229 231 228 221 215 210 210 215 227 254 272 271 275 286 298 299 302 301 319 318 333 339 337 339 341 339 338 337 342 342 344 344 347 349 349
232 228 227 227 228 227 223 216 211 212 217 231 260 263 269 277 287 290 300 299 302 304 316 323 328 334 329 335 336 335 337 341 343 344 344 347 349 349
233 226 225 225 226 224 219 216 216 216 233 242 253 258 262 271 280 289 300 305 308 314 317 326 326 328 326 333 337 335 337 341 343 344 345 347 349 351
230 229 230 229 227 224 219 217 216 231 238 262 263 260 259 263 272 281 290 299 308 312 314 323 322 330 331 331 331 335 339 341 343 344 345 347 349 351
230 230 231 232 230 225 219 217 223 229 240 267 271 262 261 261 268 274 281 292 299 302 303 310 321 328 328 324 324 333 339 341 345 343 343 345 348 351
231 231 233 233 229 225 219 218 228 235 253 284 272 264 265 263 265 270 279 286 297 303 306 304 314 321 324 325 318 332 333 339 345 342 340 343 346 350
228 230 230 231 229 224 220 225 228 244 263 272 267 265 266 263 266 272 275 284 289 294 300 297 307 318 322 316 320 322 327 334 340 339 338 341 343 346
234 234 233 232 229 225 223 229 233 247 272 267 266 264 264 267 269 270 271 273 277 279 287 294 298 307 305 302 313 315 317 328 333 336 337 340 343 345
238 241 239 237 232 227 229 231 236 260 266 276 264 264 263 265 268 268 271 271 272 279 285 289 290 297 297 300 306 308 310 317 326 332 335 338 340 341
241 241 241 238 232 228 233 231 244 257 283 280 265 265 264 267 269 270 272 275 280 281 279 281 286 288 286 291 298 305 310 315 319 326 329 332 336 337
241 240 238 234 230 233 233 237 249 264 281 273 265 264 261 263 266 266 267 271 275 279 283 280 278 280 287 290 290 297 303 304 313 317 323 328 329 333
244 239 236 233 230 233 235 243 252 262 269 261 259 260 260 260 263 265 265 266 269 277 281 281 278 280 284 284 284 292 296 293 300 308 313 320 325 324
249 246 243 239 235 238 240 250 255 261 265 258 260 259 258 259 262 262 262 263 267 272 275 274 271 273 277 278 283 291 285 290 293 297 310 311 319 318
250 249 247 244 239 240 250 253 263 270 259 261 261 261 259 258 257 258 259 261 265 270 271 265 262 267 271 277 286 285 289 291 286 299 302 302 308 313
251 250 249 247 242 247 250 260 269 261 254 262 259 260 259 257 255 255 256 258 262 265 264 261 261 262 266 273 275 283 287 285 286 293 294 294 300 304
254 253 253 253 248 254 255 268 270 281 255 262 259 261 259 256 255 256 256 256 257 258 259 259 264 260 263 266 270 285 279 279 284 288 291 294 299 300
256 256 258 260 255 258 259 267 270 276 252 261 258 258 259 256 254 254 253 253 255 257 257 251 254 258 261 265 275 280 281 278 279 281 284 289 292 286
268 264 263 263 262 262 267 268 278 276 257 259 261 261 259 255 254 253 250 250 250 248 248 248 249 250 254 259 266 271 273 276 279 279 278 280 278 280